(2021 CN5) |
Classification: Apollo [NEO] SPK-ID: 54115824 |
[ hide orbit diagram ]
For accurate long-term ephemerides, please instead use our Horizons system.This orbit viewer was implemented using two-body methods, and hence should not be used for determining accurate long-term trajectories (over several years or decades) or planetary encounter circumstances.
Orbital Elements at Epoch 2459000.5 (2020-May-31.0) TDB
Reference: JPL 3 (heliocentric ecliptic J2000)
Element | Value | Uncertainty (1-sigma) | Units |
e | .4921416871025366 | 0.0003423 | |
a | 1.096142160091355 | 0.00033268 | au |
q | .5566849081197769 | 0.0002063 | au |
i | 5.618639578592834 | 0.0045984 | deg |
node | 325.5237082243078 | 0.0003903 | deg |
peri | 287.7134885176395 | 0.0012056 | deg |
M | 87.17460203721548 | 0.14223 | deg |
tp | 2458898.995283500250 (2020-Feb-19.49528350) | 0.21182 | TDB |
period | 419.1782593318867 1.15 | 0.19083 0.0005225 | d yr |
n | .85882316648242 | 0.00039098 | deg/d |
Q | 1.635599412062934 | 0.0004964 | au |
|
| | Orbit Determination Parameters
Additional Information
|
[ show covariance matrix ]
Physical Parameter Table
Parameter |
Symbol |
Value |
Units |
Sigma |
Reference |
Notes |
absolute magnitude |
H |
27.8 |
|
.33719 |
E2021-CX0 |
autocmod 2.8 |
|
[ show close-approach data ]
|